Location: Eagan
(44.8336°N, 93.1671°W)
Time: 23:02:27
(UTC+00:00)

Tiangong - Visible Passes

Search period start: 13 October 2024 00:00
Search period end: 23 October 2024 00:00
Orbit: 371 x 377 km, 41.5° (Epoch: 13 October)

Date Brightness Start Highest point End Pass type
(mag) Time Alt. Az. Time Alt. Az. Time Alt. Az.
16 Oct 0.7 11:54:13 10° S 11:55:43 13° SSE 11:57:14 10° ESE visible
18 Oct 0.3 11:23:20 10° SSW 11:25:31 18° SSE 11:27:43 10° ESE visible
19 Oct 0.8 10:22:38 11° SE 10:22:38 11° SE 10:23:23 10° SE visible
19 Oct -0.7 11:55:34 10° SW 11:58:23 32° SSE 12:01:12 10° E visible
20 Oct -0.4 10:54:24 22° S 10:55:04 23° SSE 10:57:37 10° ESE visible
21 Oct -1.1 11:26:02 19° SW 11:27:50 38° S 11:30:46 10° E visible
22 Oct 0.1 10:25:33 22° SE 10:25:33 22° SE 10:27:07 10° ESE visible
22 Oct -1.4 11:57:39 10° WSW 12:00:38 44° S 12:03:36 10° ESE visible
